Regional Weather Roundup
Issued by NWS

Home | Current Version | Previous Version | Graphics & Text | Print | Product List | Glossary On
Versions: 1 2 3 4 5 6 7 8 9 10 11 12 13 14 15 16 17 18 19 20 21 22 23 24 25 26 27 28 29 30 31 32 33 34 35 36 37 38 39 40 41 42 43 44 45 46 47 48 49 50
000
ASUS43 KBIS 212310
RWRND

NORTH DAKOTA REGIONAL WEATHER ROUNDUP
NATIONAL WEATHER SERVICE BISMARCK ND
600 PM CDT THU SEP 21 2017

NOTE: "FAIR" INDICATES FEW OR NO CLOUDS BELOW 12,000 FEET WITH NO
SIGNIFICANT WEATHER AND/OR OBSTRUCTIONS TO VISIBILITY.


NDZ001>003-009>011-017-220000-
NORTHWEST NORTH DAKOTA

CITY           SKY/WX    TMP DP  RH WIND       PRES   REMARKS
WILLISTON      PTSUNNY   63  36  36 NW12      29.80R
MINOT          SUNNY     70  46  42 NW13      29.72R
MINOT AFB      SUNNY     68  46  44 N10       29.71R
$$

NDZ018>021-031>035-040>046-220000-
SOUTHWEST NORTH DAKOTA

CITY           SKY/WX    TMP DP  RH WIND       PRES   REMARKS
BISMARCK       SUNNY     76  50  40 NW14      29.68R
DICKINSON      SUNNY     67  40  37 N13       29.76R
GARRISON         N/A     70  45  40 N12G20    29.71R
HETTINGER ARPT SUNNY     70  41  34 N14       29.75R
$$

NDZ004>008-012>016-024-026-027-054-220000-
NORTHEAST NORTH DAKOTA

CITY           SKY/WX    TMP DP  RH WIND       PRES   REMARKS
GRAND FORKS    MOSUNNY   79  51  37 SE15      29.66F
GRND FRKS AFB  SUNNY     78  47  33 S10       29.67S
DEVILS LAKE    CLOUDY    71  58  63 SE5       29.66R
$$

NDZ022-023-025-028>030-036>039-047>053-220000-
SOUTHEAST NORTH DAKOTA

CITY           SKY/WX    TMP DP  RH WIND       PRES   REMARKS
FARGO          CLOUDY    79  59  50 SE10G22   29.67S
JAMESTOWN      MOSUNNY   80  62  54 S9        29.64R
$$





USA.gov is the U.S. government's official web portal to all federal, state and local government web resources and services.